Location: Maiden_LMO
(35.5760°N, 81.2120°W)
Time: 15:50:37
(UTC-04:00)

ADEOS II - Visible Passes

Search period start: 26 May 2018 00:00
Search period end: 05 June 2018 00:00
Orbit: 799 x 802 km, 98.4° (Epoch: 25 May)

Date Brightness Start Highest point End Pass type
(mag) Time Alt. Az. Time Alt. Az. Time Alt. Az.
26 May 2.0 04:43:01 10° N 04:48:18 80° WNW 04:52:26 17° SSW visible
27 May 2.6 04:16:39 10° NNE 04:21:50 56° E 04:25:41 18° S visible
28 May 3.6 03:50:39 10° NE 03:55:17 31° E 03:58:55 15° SSE visible
28 May 3.2 05:30:26 10° NNW 05:34:51 28° WNW 05:39:16 10° SW visible
29 May 4.4 03:25:17 10° NE 03:28:37 17° E 03:31:57 10° SE visible
29 May 2.4 05:03:30 10° N 05:08:34 50° WNW 05:13:06 13° SW visible
30 May 2.1 04:36:53 10° NNE 04:42:11 90° SE 04:46:20 17° SSW visible
31 May 2.8 04:10:36 10° NNE 04:15:42 49° E 04:19:34 17° S visible
01 Jun 3.8 03:44:42 10° NE 03:49:07 27° E 03:52:49 13° SSE visible
01 Jun 3.0 05:24:09 10° N 05:28:47 32° WNW 05:33:22 10° SW visible
02 Jun 4.5 03:19:34 10° ENE 03:22:27 15° E 03:25:18 10° SE visible
02 Jun 2.3 04:57:19 10° N 05:02:28 57° WNW 05:06:59 13° SSW visible
03 Jun 2.1 04:30:46 10° NNE 04:36:03 80° ESE 04:40:13 17° S visible
04 Jun 3.0 04:04:33 10° NNE 04:09:34 43° E 04:13:26 16° SSE visible
